Regional Weather Roundup
Issued by NWS

Home | Current Version | Previous Version | Graphics & Text | Print | Product List | Glossary On
Versions: 1 2 3 4 5 6 7 8 9 10 11 12 13 14 15 16 17 18 19 20 21 22 23 24 25 26 27 28 29 30 31 32 33 34 35 36 37 38 39 40 41 42 43 44 45 46 47 48 49 50
000
ASUS45 KSLC 290110
RWRUT

UTAH REGIONAL WEATHER ROUNDUP
NATIONAL WEATHER SERVICE SALT LAKE CITY UT
700 PM MDT THU MAY 28 2015

UTZ001>011-023>025-290200-

NORTHERN UTAH

CITY           SKY/WX    TMP DP  RH WIND       PRES   REMARKS
BRIGHAM CITY   MOSUNNY   67  38  34 CALM      30.10S
HILL AFB       MOSUNNY   65  42  43 NE2       30.12S
LOGAN          MOSUNNY   61  48  62 CALM      30.12F
OGDEN          MOSUNNY   67  40  37 CALM      30.10S
PROVO AIRPORT  NOT AVBL
SALT LAKE CITY MOSUNNY   70  40  33 N10       30.09S
VERNAL         LGT RAIN  55  44  66 NE7       30.14R
WENDOVER       MOSUNNY   72  46  40 E5        30.08S
HEBER CITY     MOSUNNY   66  34  30 N10       30.14R
WEST JORDAN    MOSUNNY   68  43  40 NW10      30.11S

$$

UTZ012>022-026-027-290200-

SOUTHERN/CENTRAL UTAH

CITY           SKY/WX    TMP DP  RH WIND       PRES   REMARKS
BLANDING       MOSUNNY   68  39  34 NW16      30.16F
BRYCE CANYON   PTSUNNY   63  34  33 NW10      30.21S
CEDAR CITY     PTSUNNY   67  40  37 SW9       30.09R
DELTA          PTSUNNY   69  43  38 SW8       30.10F
HANKSVILLE     PTSUNNY   72  37  28 E9        30.05R
MILFORD        MOSUNNY   69  46  43 NE18G25   30.09F
MOAB/CYNLANDS  SUNNY     69  38  32 SE10      30.04S
PRICE            N/A     66  34  30 N12       30.12R
ST GEORGE      PTCLDY    90  34  13 W12       29.91S

$$

REGIONAL REPORTS     COLORADO/ARIZONA

CITY           SKY/WX    TMP DP  RH WIND       PRES   REMARKS
CRAIG, CO      RAIN      46  41  82 W16G22    30.23R
GRAND JUNCTION PTSUNNY   63  40  42 CALM      30.09F
RIFLE          PTSUNNY   60  39  45 E3        30.14S
MONTROSE       CLOUDY    59  41  51 W7        30.19R
CORTEZ         MOSUNNY   67  40  37 N28G37    30.12R
PAGE, AZ       MOSUNNY   82  36  19 N18       29.99R
GRAND CANYON   MOSUNNY   75  24  15 W7        30.15S
KINGMAN        MOSUNNY   87  22   9 SW14      29.96S
FLAGSTAFF      SUNNY     71  16  12 W9        30.19R

$$

REGIONAL REPORTS    NEVADA/IDAHO/WYOMING

CITY           SKY/WX    TMP DP  RH WIND       PRES   REMARKS
LAS VEGAS, NV  PTSUNNY   94  28   9 SE10      29.79F
ELY            CLOUDY    69  37  30 VRB5      30.13S
ELKO           MOSUNNY   74  39  28 NE9       30.08F
POCATELLO, ID  MOSUNNY   66  39  37 N5        30.13R
BURLEY         SUNNY     69  41  36 W7        30.07F
EVANSTON, WY   MOSUNNY   52  37  56 W7        30.22S
ROCK SPRINGS   PTSUNNY   48  39  71 SW12      30.19S
KEMMERER       MOSUNNY   50  36  57 W13       30.21S

$$



USA.gov is the U.S. government's official web portal to all federal, state and local government web resources and services.